User: anonymous   Login
Location: Esp�n
(42.4593°N, 0.2047°W)
Time: 10:59:13
(UTC+00:00)
Language:

NOSS 3-1 (A) - Orbit

View from above orbital plane
View from above orbital plane
View from above satellite
View from above satellite

Ground track
Ground track

The orbit data is extracted from the following two-line orbital elements,

1 26905U 01040A   20223.10168251 0.00000000  00000-0  00000-0 0    03
2 26905  63.4069 334.4752 0473438   0.6808 359.3192 13.40782397    07
Epoch (UTC): 10 August 2020 02:26:25
Eccentricity: 0.0473438
inclination: 63.4069°
perigee height: 752 km
apogee height: 1461 km
right ascension of ascending node: 334.4752°
argument of perigee: 0.6808°
revolutions per day: 13.40782397
mean anomaly at epoch: 359.3192°
orbit number at epoch: 0

The dashed part of the orbit path shows where the satellite is in the earth's shadow,  

DLR